Temperature
18 18 18 17 17 17 17 17 16 16 16 16 16 16 15 15 15 15 15 14 14 14 14 14 14 14 14 14 14 14 14 14 14 14 14 14 14 14 15 15 15 15 15
18 17 17 17 17 17 17 16 16 16 16 16 16 16 16 15 15 15 15 14 14 14 14 14 14 14 14 14 14 14 14 14 14 14 14 14 14 14 14 14 14 14 15
17 17 17 17 17 17 16 16 16 16 16 16 16 16 16 16 15 15 15 15 15 14 14 14 14 14 14 14 14 14 14 14 14 14 14 14 14 14 14 14 14 14 14
17 17 16 16 16 16 16 16 16 16 16 16 16 16 16 16 15 15 15 15 15 15 14 14 14 14 14 14 14 14 14 14 14 14 14 14 14 14 14 14 14 14 14
16 16 16 16 16 16 16 15 15 15 15 15 15 15 15 15 15 15 15 15 15 15 15 15 14 14 14 14 14 14 14 13 13 13 13 13 14 13 14 14 14 14 14
16 15 15 15 15 15 15 15 15 15 15 15 15 15 15 15 15 15 15 15 15 15 15 15 15 15 14 14 14 14 14 13 13 13 13 13 14 14 14 14 13 13 13
16 15 15 15 15 14 14 14 14 14 14 14 14 14 15 15 15 15 15 15 15 15 15 15 15 15 15 14 14 14 14 14 14 14 13 14 14 14 14 13 13 13 13
15 15 14 14 14 14 14 14 14 14 14 14 14 14 14 14 14 14 14 14 14 15 15 15 15 15 15 14 14 14 14 14 14 14 14 14 14 14 13 13 13 13 13
14 14 14 13 13 13 13 13 13 13 13 13 13 13 13 13 13 13 14 14 14 14 14 14 15 15 15 14 14 14 14 14 14 14 14 13 13 13 13 13 13 13 13
14 13 13 13 13 13 13 13 13 13 12 12 12 12 12 13 13 13 13 13 13 13 14 14 14 14 15 14 14 14 14 14 13 13 13 13 13 13 13 13 13 13 13
13 13 12 12 12 12 12 12 12 12 12 12 12 12 12 12 12 12 12 12 12 13 13 13 14 14 14 14 14 14 14 14 13 13 13 13 13 13 13 13 13 13 12
12 12 12 12 12 12 12 12 12 11 11 11 11 11 11 11 11 11 11 12 12 12 12 13 13 14 14 14 14 14 14 13 13 13 13 13 13 13 13 13 13 12 12
12 12 12 12 12 11 11 11 11 11 11 11 11 11 11 11 10 10 11 11 11 11 12 12 12 13 13 13 13 13 13 13 13 13 13 13 13 13 12 12 12 12 12
11 11 11 11 11 11 11 11 11 10 10 10 10 10 10 10 10 10 10 10 10 11 11 12 12 12 13 13 13 13 13 13 13 13 13 13 13 12 12 12 12 12 12
11 11 11 11 11 10 10 10 10 10 10 10 10 9 9 9 9 9 9 9 9 10 10 10 11 12 12 12 12 12 12 12 12 12 12 12 12 12 12 12 12 12 11
11 11 10 10 10 10 10 9 9 9 9 9 9 9 9 9 9 9 9 9 9 9 9 9 10 10 11 11 11 11 12 12 12 12 12 12 12 12 12 12 12 11 11
10 10 10 10 10 9 9 9 9 9 9 9 9 8 8 8 8 8 8 8 9 9 9 9 9 9 10 10 10 11 11 11 11 12 12 12 11 11 11 11 11 11 11
10 10 10 10 9 9 9 9 8 8 8 8 8 8 8 8 8 8 8 8 8 8 8 8 8 9 9 9 10 10 10 11 11 11 11 11 11 11 11 11 11 11 11
10 10 9 9 9 9 9 8 8 8 8 8 8 8 8 8 7 7 7 7 7 7 7 8 8 8 8 9 9 9 10 10 10 10 11 11 11 11 11 11 10 10 10
10 9 9 9 9 8 8 8 8 8 8 8 8 7 7 7 7 7 7 7 6 6 7 7 7 7 8 8 8 9 9 9 9 10 10 10 10 11 11 10 10 10 10
9 9 9 9 8 8 8 8 8 8 8 7 7 7 7 7 7 6 6 6 6 6 6 6 6 6 7 7 8 8 8 8 9 9 9 10 10 10 10 10 10 10 10
9 9 8 8 8 8 8 8 8 7 7 7 7 7 7 6 6 6 6 6 6 5 5 5 5 6 6 6 7 7 7 8 8 8 9 9 9 9 9 9 10 9 9
9 8 8 8 8 8 8 7 7 7 7 7 6 6 6 6 6 6 6 5 5 5 5 5 5 5 5 6 6 6 6 7 7 8 8 8 8 9 9 9 9 9 9
8 8 8 8 7 7 7 7 7 7 7 6 6 6 6 6 5 5 5 5 5 4 4 4 4 4 5 5 5 6 6 6 7 7 8 8 8 8 8 8 8 9 9
8 8 7 7 7 7 7 7 7 6 6 6 6 5 5 5 5 5 4 4 4 4 4 4 4 4 4 4 5 5 5 6 6 7 7 7 7 8 8 8 8 8 8
7 7 7 7 7 7 7 6 6 6 6 5 5 5 5 4 4 4 4 4 3 3 3 3 3 3 4 4 4 5 5 5 6 6 7 7 7 7 7 7 7 7 7
Wind_Speed
1 1 2 2 2 2 3 3 3 4 4 3 3 3 3 3 3 2 2 2 3 3 2 2 1 0 0 1 1 0 0 1 1 1 1 2 3 3 2 4 6 6 6
2 2 2 2 2 3 3 3 4 5 4 4 3 4 4 3 2 2 3 3 3 3 3 2 1 1 1 1 1 1 1 1 2 2 1 1 2 3 3 3 3 5 6
3 3 3 3 3 4 4 3 4 4 5 5 4 4 4 4 4 4 5 5 5 5 4 3 2 1 2 2 2 1 1 1 1 2 2 1 1 2 2 2 1 2 4
3 3 4 4 4 4 5 4 4 5 5 5 5 5 5 4 4 4 4 4 5 4 5 4 4 3 2 2 2 2 1 1 1 1 1 2 1 1 2 2 1 1 2
3 3 4 5 5 5 6 5 5 6 6 6 5 6 5 4 4 4 3 4 4 5 5 5 5 5 4 2 1 0 1 1 2 2 2 2 2 2 2 2 2 2 1
3 4 4 4 5 6 6 6 6 6 7 6 6 6 6 5 5 4 4 4 5 5 6 5 6 7 7 7 5 4 2 2 2 2 3 3 4 3 3 3 2 2 2
5 5 5 5 5 5 7 6 6 6 6 7 7 6 6 7 8 7 8 6 6 6 6 6 5 7 9 7 8 8 7 7 5 3 3 4 4 4 4 4 3 3 3
6 6 5 5 5 6 6 6 6 5 6 6 6 7 7 8 9 9 8 7 8 8 8 8 7 6 8 8 7 7 7 7 8 6 4 3 2 3 4 5 5 3 2
5 5 6 6 6 6 6 6 6 6 6 6 6 6 7 7 8 8 6 5 7 9 9 9 9 7 11 13 8 7 7 7 8 8 7 6 5 4 3 2 2 3 3
5 5 5 6 6 6 6 6 6 6 6 7 7 6 7 6 7 7 6 4 6 8 8 9 12 11 11 13 9 8 8 7 6 6 6 6 6 5 6 5 4 4 3
3 4 4 5 5 4 4 5 6 6 7 7 7 6 6 7 7 7 6 4 5 7 7 7 7 9 10 14 12 9 9 7 6 7 7 7 6 6 6 5 4 4 4
2 3 4 4 5 5 4 5 5 6 6 6 6 7 6 7 7 7 8 7 9 7 8 8 7 9 9 11 11 11 12 8 5 5 5 6 6 7 7 7 6 5 4
3 4 4 5 4 3 4 5 5 5 4 5 5 6 6 6 6 9 10 12 13 9 9 12 13 12 10 9 12 14 11 7 6 6 7 7 7 7 7 6 6 5 4
4 5 5 4 4 5 4 4 3 4 4 5 5 6 6 6 6 6 7 8 10 10 9 12 14 13 11 10 10 10 8 8 8 8 7 7 6 6 6 6 6 6 4
4 5 5 3 4 4 5 4 5 4 4 5 5 6 6 7 8 11 10 8 8 9 10 9 8 6 6 6 7 8 8 8 9 8 7 7 6 7 6 6 6 6 6
4 4 4 3 3 4 5 6 8 8 10 10 10 10 8 11 14 15 16 16 17 16 11 8 8 8 8 8 8 7 8 9 9 9 8 8 8 8 7 6 6 7 7
5 5 3 3 4 4 5 6 7 8 10 12 13 13 13 14 16 16 17 17 17 15 9 8 9 8 8 8 8 8 8 9 9 9 9 9 8 8 8 8 8 8 8
5 5 4 4 4 5 5 6 6 7 7 6 9 12 14 14 15 16 16 13 10 8 7 8 8 8 8 7 7 7 7 7 8 9 9 9 9 9 9 9 9 9 8
5 4 4 4 4 5 6 6 7 8 7 7 6 7 10 11 12 13 12 7 8 8 8 8 8 8 8 8 7 7 8 7 8 8 9 10 10 9 9 9 9 12 9
4 7 7 5 5 6 6 6 7 7 7 7 7 7 6 7 6 7 7 7 7 8 8 8 8 9 8 8 7 7 7 7 8 8 8 8 9 9 10 11 10 9 9
4 6 9 7 6 6 7 7 7 7 7 7 7 8 11 8 8 9 8 7 7 7 8 8 8 9 8 7 7 7 9 8 7 8 8 8 8 8 9 10 10 10 9
5 6 6 6 6 7 7 7 7 7 8 9 8 9 13 8 7 8 7 7 7 7 7 8 8 8 8 7 8 8 9 9 8 7 7 7 7 8 8 9 10 9 10
6 7 7 7 7 8 8 7 7 8 8 8 8 8 8 7 7 7 8 8 8 7 7 8 8 9 8 8 8 8 10 9 8 8 8 7 7 7 8 9 11 12 11
6 7 7 7 7 7 7 8 8 7 7 8 8 8 8 7 8 8 8 8 8 8 8 8 9 12 13 11 9 8 8 9 8 8 9 8 8 8 8 9 9 11 12
7 7 7 8 8 8 8 8 7 7 7 8 8 8 8 8 8 8 8 8 9 9 10 10 9 11 12 14 13 11 12 13 13 9 8 8 8 8 9 9 9 10 10
7 8 8 8 8 8 8 7 7 8 7 8 8 8 8 8 8 8 8 8 9 9 10 10 11 14 14 13 14 14 14 14 13 12 9 7 8 8 8 8 10 10 11
Wind_Direction
339 283 289 268 262 244 240 258 264 270 262 243 240 262 266 236 221 194 228 265 284 293 287 234 217 193 159 289 304 280 161 142 181 232 197 176 168 157 155 169 170 173 179
5 337 311 303 275 270 252 241 252 263 273 271 253 246 262 263 248 212 221 238 253 273 282 278 233 183 178 243 254 261 213 198 184 207 208 182 181 172 170 188 189 182 172
31 358 356 348 330 310 299 276 264 268 269 271 263 249 253 253 244 233 219 222 230 232 240 248 237 196 199 218 218 238 230 225 185 188 215 201 201 179 171 198 193 176 172
48 15 0 345 340 332 326 328 317 308 297 289 290 278 262 252 246 246 243 229 240 235 219 215 218 215 206 210 213 221 221 234 212 205 213 197 197 195 164 183 195 201 186
47 30 12 353 353 345 340 338 327 315 307 298 291 290 289 275 259 260 266 255 250 251 233 218 208 187 162 160 163 224 231 215 220 207 214 203 201 182 193 203 194 196 206
56 40 24 0 354 348 339 336 330 323 318 316 310 304 300 295 288 278 265 274 272 265 253 232 205 191 192 192 193 196 192 214 224 212 212 212 214 201 195 194 179 168 222
46 36 23 6 357 346 342 338 326 321 316 310 304 299 293 287 280 268 257 260 262 265 270 259 237 207 191 193 208 217 225 226 220 218 230 228 209 196 184 193 194 187 206
40 22 9 4 357 347 341 333 328 324 319 308 300 297 293 288 282 269 262 255 256 254 257 258 249 224 198 193 198 207 214 218 222 220 227 237 220 183 175 186 191 189 194
34 14 5 360 352 346 340 334 329 326 319 314 309 303 297 295 290 280 264 270 266 257 252 252 247 234 211 200 200 209 212 218 216 204 195 190 178 165 159 149 172 167 197
28 7 359 349 343 340 337 333 330 325 318 315 312 308 306 306 309 305 283 275 281 279 266 256 248 238 220 201 200 208 218 217 198 196 200 205 200 201 196 188 186 184 193
19 348 338 331 323 327 336 327 322 323 321 317 316 317 317 318 321 321 311 293 292 293 287 272 258 243 226 211 206 211 216 211 201 199 200 203 201 201 201 205 199 187 195
339 316 309 307 314 332 328 318 317 321 321 321 322 324 323 326 331 327 324 312 310 300 295 290 283 265 245 230 222 225 218 211 210 209 206 205 203 201 198 195 196 190 184
307 304 300 299 300 308 311 313 318 325 328 326 325 324 321 322 327 334 334 325 312 298 292 296 297 284 260 239 230 228 220 212 209 217 219 217 208 197 183 180 182 174 171
306 305 301 310 325 325 316 305 311 313 315 315 316 314 312 314 322 333 329 317 312 305 297 299 292 274 253 239 235 227 221 215 211 217 217 216 202 190 185 177 177 173 173
287 289 298 305 306 306 306 300 295 276 273 278 282 287 298 303 304 311 312 307 302 296 303 294 284 271 252 242 232 223 215 215 220 218 216 214 204 195 192 180 174 175 185
287 293 292 295 296 298 297 297 284 277 278 272 267 269 281 282 292 300 304 303 299 296 299 282 273 261 254 246 237 232 226 219 216 213 214 213 206 199 196 189 184 187 192
280 284 285 290 294 293 292 293 298 293 280 276 274 274 271 277 287 294 296 300 298 297 287 269 264 260 257 255 248 239 236 231 219 215 213 210 204 199 195 195 194 193 196
272 280 280 269 273 281 284 286 286 289 292 286 274 271 274 277 282 286 290 301 300 292 280 276 271 268 260 259 259 254 248 242 231 223 217 210 204 200 198 196 196 197 196
266 263 266 270 272 274 275 277 280 282 282 285 289 287 282 282 282 284 291 284 288 290 289 285 281 277 268 262 260 259 252 248 241 230 222 214 208 201 200 199 197 196 195
255 262 267 265 266 269 270 271 275 278 282 285 286 287 291 294 294 293 287 281 283 288 288 289 291 287 278 270 266 264 261 252 245 239 229 219 213 205 200 196 195 195 196
251 261 264 266 263 267 269 272 274 277 281 283 282 282 289 289 285 283 281 280 282 286 288 286 287 291 286 280 273 268 266 259 249 242 232 222 216 213 203 196 193 191 189
254 260 260 261 262 264 269 270 273 274 277 281 283 282 283 278 277 279 283 285 284 281 282 283 283 284 284 282 277 271 266 262 255 246 238 229 217 216 208 198 191 187 184
256 263 265 267 268 270 272 268 269 270 272 276 281 283 282 279 279 281 284 286 285 283 283 284 287 285 283 281 275 272 269 263 254 245 239 237 224 212 211 203 192 185 184
258 265 271 273 273 271 270 270 270 272 277 282 285 285 282 280 281 283 285 286 287 285 283 285 286 282 283 288 283 274 269 267 262 248 234 232 228 219 210 203 196 188 183
260 263 266 269 270 270 271 272 273 275 279 284 285 285 285 286 287 288 287 286 289 288 287 287 286 284 281 284 283 280 275 272 267 255 240 227 222 219 211 201 195 185 179
261 264 265 267 267 268 270 273 275 275 277 280 282 283 287 290 289 289 289 288 288 288 286 285 282 282 281 282 282 279 276 270 261 248 236 223 215 212 205 200 187 183 177
Height
1522 1522 1523 1523 1523 1522 1522 1521 1521 1520 1519 1519 1518 1517 1517 1516 1515 1514 1513 1512 1511 1511 1510 1509 1509 1508 1508 1508 1508 1508 1508 1509 1509 1510 1511 1512 1513 1513 1514 1515 1516 1517 1519
1521 1521 1521 1521 1521 1521 1520 1520 1519 1518 1518 1518 1517 1516 1515 1515 1514 1513 1512 1511 1510 1510 1509 1509 1508 1508 1507 1507 1507 1507 1507 1507 1508 1508 1509 1510 1511 1512 1512 1513 1514 1515 1516
1520 1520 1520 1520 1519 1519 1519 1518 1517 1517 1516 1516 1515 1514 1513 1513 1512 1511 1511 1510 1509 1508 1508 1508 1507 1507 1506 1506 1505 1505 1506 1506 1506 1507 1508 1508 1509 1510 1511 1512 1512 1513 1514
1520 1519 1519 1518 1518 1517 1517 1516 1515 1514 1514 1513 1513 1512 1511 1511 1510 1509 1509 1508 1508 1507 1507 1506 1505 1505 1505 1504 1504 1504 1504 1504 1505 1505 1505 1506 1507 1508 1509 1509 1510 1511 1512
1519 1519 1518 1517 1516 1515 1514 1513 1512 1512 1511 1510 1510 1509 1508 1508 1507 1507 1506 1506 1505 1505 1504 1504 1503 1503 1503 1503 1502 1502 1502 1502 1503 1503 1504 1505 1505 1505 1506 1507 1508 1509 1510
1519 1518 1517 1516 1515 1513 1512 1511 1510 1508 1508 1507 1506 1505 1504 1504 1503 1503 1502 1502 1502 1502 1502 1501 1501 1500 1500 1500 1500 1500 1500 1500 1501 1501 1501 1502 1502 1503 1504 1505 1506 1506 1507
1518 1517 1516 1514 1513 1511 1510 1509 1507 1506 1504 1503 1502 1501 1500 1499 1499 1498 1498 1497 1497 1497 1497 1498 1498 1497 1497 1497 1497 1497 1497 1498 1498 1499 1499 1499 1499 1500 1501 1502 1502 1503 1504
1517 1516 1514 1513 1511 1509 1508 1506 1505 1503 1501 1500 1499 1497 1496 1495 1495 1494 1493 1492 1492 1492 1493 1493 1494 1494 1493 1493 1493 1493 1493 1494 1494 1495 1495 1496 1496 1497 1498 1499 1499 1500 1502
1515 1514 1512 1511 1509 1507 1506 1504 1502 1500 1499 1497 1495 1494 1493 1491 1490 1489 1488 1487 1486 1486 1487 1488 1489 1489 1489 1489 1489 1489 1489 1490 1491 1491 1492 1492 1493 1494 1494 1495 1496 1497 1498
1513 1512 1510 1509 1507 1505 1504 1502 1500 1498 1496 1494 1492 1491 1490 1488 1487 1485 1484 1482 1481 1480 1481 1482 1483 1484 1484 1484 1484 1485 1485 1485 1486 1487 1487 1488 1489 1489 1490 1491 1492 1493 1494
1511 1510 1508 1507 1505 1503 1501 1499 1497 1495 1493 1492 1490 1488 1487 1485 1483 1481 1480 1478 1476 1475 1475 1475 1476 1477 1478 1478 1479 1479 1479 1481 1481 1482 1482 1483 1484 1484 1485 1486 1488 1489 1490
1508 1507 1506 1504 1503 1501 1499 1497 1495 1493 1491 1489 1487 1485 1483 1481 1479 1477 1475 1474 1472 1470 1469 1468 1469 1470 1470 1471 1471 1472 1474 1475 1476 1476 1477 1477 1478 1479 1480 1481 1483 1484 1486
1506 1505 1503 1502 1500 1499 1497 1494 1492 1490 1488 1486 1484 1481 1479 1477 1475 1473 1471 1468 1466 1464 1462 1462 1462 1462 1462 1463 1464 1465 1466 1467 1468 1469 1470 1471 1472 1474 1475 1477 1478 1479 1481
1503 1502 1500 1499 1497 1496 1494 1492 1490 1487 1485 1483 1481 1478 1475 1472 1470 1468 1465 1463 1460 1458 1455 1454 1454 1454 1454 1455 1455 1456 1458 1459 1460 1461 1462 1464 1467 1468 1469 1471 1472 1474 1475
1499 1498 1497 1496 1494 1492 1490 1489 1486 1485 1483 1480 1477 1475 1471 1468 1466 1464 1461 1457 1454 1452 1449 1446 1445 1445 1445 1446 1447 1448 1449 1450 1452 1453 1455 1457 1459 1461 1462 1464 1466 1468 1469
1496 1495 1493 1492 1490 1488 1486 1484 1482 1481 1478 1476 1473 1471 1467 1465 1461 1459 1456 1452 1449 1446 1443 1439 1438 1437 1437 1438 1438 1439 1440 1441 1442 1444 1446 1448 1450 1452 1455 1457 1459 1461 1462
1491 1490 1489 1487 1485 1483 1481 1479 1476 1474 1473 1471 1468 1466 1463 1460 1457 1453 1450 1446 1443 1440 1436 1433 1432 1431 1431 1431 1431 1431 1432 1433 1435 1436 1437 1439 1442 1444 1446 1448 1450 1453 1455
1487 1486 1484 1482 1481 1479 1477 1474 1472 1469 1466 1464 1462 1460 1457 1454 1451 1448 1444 1440 1436 1433 1431 1428 1426 1425 1424 1424 1424 1424 1424 1425 1426 1427 1428 1430 1433 1435 1437 1439 1442 1444 1447
1481 1480 1479 1477 1475 1473 1471 1469 1467 1464 1461 1458 1455 1453 1451 1448 1445 1442 1439 1435 1431 1427 1425 1422 1420 1419 1417 1416 1416 1416 1416 1416 1416 1418 1419 1421 1423 1425 1428 1430 1433 1436 1439
1476 1474 1473 1472 1470 1468 1466 1463 1461 1458 1456 1453 1450 1447 1444 1441 1438 1435 1432 1429 1425 1422 1419 1416 1414 1412 1410 1409 1408 1408 1407 1407 1408 1408 1410 1411 1413 1416 1418 1421 1424 1427 1431
1470 1468 1467 1465 1463 1462 1460 1457 1455 1452 1449 1446 1444 1441 1439 1435 1432 1429 1425 1422 1419 1416 1413 1410 1407 1405 1402 1401 1400 1399 1398 1398 1399 1400 1401 1402 1404 1406 1409 1412 1415 1419 1423
1463 1462 1460 1459 1457 1455 1453 1451 1448 1445 1442 1440 1436 1434 1431 1428 1425 1422 1419 1415 1412 1409 1406 1403 1399 1397 1394 1393 1392 1391 1390 1390 1390 1391 1392 1393 1395 1398 1400 1403 1406 1410 1414
1457 1455 1454 1452 1450 1448 1446 1443 1441 1438 1435 1432 1429 1427 1424 1421 1418 1415 1411 1408 1404 1401 1398 1395 1391 1388 1386 1384 1383 1382 1381 1381 1382 1382 1383 1384 1385 1388 1390 1393 1397 1400 1405
1450 1448 1446 1445 1443 1440 1438 1436 1433 1431 1428 1425 1422 1419 1417 1413 1410 1407 1403 1400 1396 1393 1389 1386 1382 1379 1377 1375 1373 1372 1372 1372 1373 1374 1374 1376 1377 1379 1381 1384 1387 1391 1396
1442 1440 1439 1437 1435 1433 1430 1428 1425 1423 1420 1417 1414 1412 1409 1405 1402 1398 1395 1391 1388 1384 1380 1377 1373 1370 1367 1365 1363 1362 1362 1362 1363 1364 1365 1367 1368 1370 1373 1376 1379 1384 1388
1434 1432 1431 1429 1427 1425 1423 1420 1417 1415 1412 1409 1406 1403 1400 1397 1393 1390 1386 1383 1379 1375 1371 1367 1363 1360 1358 1356 1353 1352 1352 1352 1353 1354 1356 1357 1359 1361 1365 1368 1372 1376 1381